Location: Baili�vre
(50.0696°N, 4.2409°E)
Time: 06:58:22
(UTC+00:00)

X-37B - Visible Passes

Search period start: 27 January 2022 00:00
Search period end: 06 February 2022 00:00
Orbit: 334 x 337 km, 45.0° (Epoch: 11 January)

Date Brightness Start Highest point End Pass type
(mag) Time Alt. Az. Time Alt. Az. Time Alt. Az.
28 Jan 2.8 17:57:50 10° S 17:59:04 12° SSE 17:59:29 12° SE visible
29 Jan 2.2 18:17:02 10° SSW 18:19:08 19° SSE 18:19:08 19° SSE visible
30 Jan 2.2 18:36:56 10° SW 18:38:45 24° SSW 18:38:45 24° SSW visible
31 Jan 2.4 17:22:29 10° SSW 17:24:37 19° SSE 17:26:46 10° ESE visible
31 Jan 2.8 18:57:07 10° WSW 18:58:21 20° SW 18:58:21 20° SW visible
01 Feb 1.9 17:42:22 10° SW 17:44:49 26° S 17:46:43 14° ESE visible
01 Feb 3.6 19:17:27 10° WSW 19:17:57 13° WSW 19:17:57 13° WSW visible
02 Feb 1.8 18:02:32 10° WSW 18:05:05 29° S 18:06:20 20° SE visible
03 Feb 2.0 18:22:53 10° WSW 18:25:19 25° S 18:25:59 23° SSE visible
04 Feb 2.6 18:43:27 10° WSW 18:45:31 18° SSW 18:45:41 18° SSW visible
05 Feb 2.2 17:28:19 10° WSW 17:30:45 25° S 17:33:11 10° SE visible
05 Feb 3.4 19:04:42 10° SW 19:05:28 11° SSW 19:05:28 11° SSW visible
